This demonstration page uses our WeatherBlox Daily Observations layout. Learn more.

Left ArrowRight Arrow

Hourly Observations for December 21, 2021

Temp ( °F °C ) Dew Point ( °F °C ) Humidity (%) Winds ( mph kmh ) Pressure ( in mb ) Visibility ( mi km ) Precip ( " mm )
12:56 am 00:56 Clear 18 -7.8 13 -10.6 81 81 SSW 10 17 30.16 1021 10 16 0.00 0.00
1:56 am 01:56 Clear 19 -7.2 14 -10 81 81 SSW 14 22 30.10 1019 10 16 0.00 0.00
2:56 am 02:56 Clear 19 -7.2 13 -10.6 77 77 SSW 10 17 30.06 1018 10 16 0.00 0.00
3:56 am 03:56 Clear 19 -7.2 12 -11.1 74 74 SSW 12 19 30.02 1017 10 16 0.00 0.00
4:56 am 04:56 Clear 20 -6.7 12 -11.1 71 71 SSW 12 19 29.99 1016 10 16 0.00 0.00
5:56 am 05:56 Clear 22 -5.6 14 -10 71 71 SW 16 26 29.98 1015 10 16 0.00 0.00
6:56 am 06:56 Clear 23 -5 16 -8.9 74 74 SW 13 20 29.97 1015 10 16 0.00 0.00
7:56 am 07:56 Clear 22 -5.6 16 -8.9 78 78 W 8 13 30.02 1017 10 16 0.00 0.00
8:56 am 08:56 Sunny 25 -3.9 17 -8.3 72 72 WNW 10 17 30.04 1017 10 16 0.00 0.00
9:56 am 09:56 Sunny 31 -0.6 21 -6.1 67 67 WNW 8 13 30.05 1018 10 16 0.00 0.00
10:56 am 10:56 Sunny 35 1.7 22 -5.6 59 59 WNW 8 13 30.06 1018 10 16 0.00 0.00
11:56 am 11:56 Sunny 45 7.2 18 -7.8 34 34 N 23 37 30.03 1017 10 16 0.00 0.00
12:56 pm 12:56 Sunny 46 7.8 17 -8.3 31 31 N 18 30 30.01 1016 10 16 0.00 0.00
1:56 pm 13:56 Sunny 47 8.3 16 -8.9 29 29 NNW 16 26 30.00 1016 10 16 0.00 0.00
2:56 pm 14:56 Sunny 47 8.3 14 -10 26 26 N 14 22 30.02 1017 10 16 0.00 0.00
3:56 pm 15:56 Sunny 46 7.8 13 -10.6 26 26 N 10 17 30.02 1017 10 16 0.00 0.00
4:56 pm 16:56 Sunny 41 5 13 -10.6 32 32 N 6 9 30.04 1017 10 16 0.00 0.00
5:56 pm 17:56 Clear 33 0.6 12 -11.1 42 42 NE 8 13 30.05 1018 8 13 0.00 0.00
6:56 pm 18:56 Clear 31 -0.6 14 -10 49 49 Calm 30.08 1019 10 16 0.00 0.00
7:56 pm 19:56 Clear 29 -1.7 13 -10.6 51 51 S 5 7 30.09 1019 10 16 0.00 0.00
8:56 pm 20:56 Clear 30 -1.1 15 -9.4 54 54 S 5 7 30.09 1019 10 16 0.00 0.00
9:56 pm 21:56 Clear 26 -3.3 15 -9.4 63 63 S 7 11 30.07 1018 10 16 0.00 0.00
10:56 pm 22:56 Clear 24 -4.4 15 -9.4 68 68 S 10 17 30.05 1018 10 16 0.00 0.00
11:56 pm 23:56 Clear 25 -3.9 17 -8.3 72 72 Calm 30.03 1017 10 16 0.00 0.00

Powered by AerisWeather